Wind_Speed
41 41 41 42 44 46 47 49 50 51 51 51 51 52 52 53 53 53 54 56 57 57 58 58 57 57 56 57 57 54 51 48 47 47 46 45 45 46 47 48 50 52 53 54 55 55 57 58 57 56 56 57 58 58 59 60 60 60 60 60 60 60 61
44 44 44 46 48 49 49 50 51 52 52 52 52 52 52 52 52 54 55 57 57 57 57 57 57 57 57 57 56 53 50 48 47 46 46 46 47 47 49 50 51 52 53 53 53 53 54 55 56 57 57 57 57 57 58 60 61 60 59 60 60 61 62
46 46 46 47 49 49 50 51 52 53 53 52 52 53 52 52 54 55 56 57 57 57 57 58 58 57 57 56 54 51 49 48 47 47 47 47 48 49 50 52 52 52 52 52 52 51 51 52 55 56 57 57 58 58 58 60 61 60 60 61 61 62 63
47 47 47 48 49 50 50 52 53 53 53 53 52 53 53 54 56 56 57 57 57 58 59 59 59 57 56 55 52 50 48 48 47 47 48 48 49 50 52 52 52 53 53 52 51 50 50 51 52 54 55 56 57 58 59 61 62 62 62 63 63 64 65
48 48 49 49 50 50 51 52 53 53 53 52 52 54 54 55 57 57 57 58 59 60 60 59 58 56 54 53 50 49 48 48 47 48 49 49 50 52 52 52 53 54 53 52 50 50 50 50 51 52 54 54 55 57 58 60 63 64 63 63 64 66 67
49 49 49 49 50 51 52 53 53 53 53 53 53 55 56 56 57 58 59 60 60 60 58 57 55 53 52 50 49 48 48 48 48 49 49 50 51 52 52 53 53 53 52 50 50 49 50 51 52 53 54 54 55 56 57 59 61 63 63 63 64 66 67
49 49 49 50 51 51 52 53 54 54 54 54 54 56 57 58 59 59 60 60 59 58 56 55 53 51 49 48 48 48 48 49 49 50 50 51 51 52 53 53 53 52 50 49 49 50 52 53 54 54 55 56 57 57 58 59 60 62 63 63 64 66 67
48 48 49 50 51 52 52 53 54 55 56 56 56 57 58 60 60 60 60 59 57 56 54 52 50 49 48 47 48 48 49 50 50 50 51 51 52 52 53 53 52 50 49 49 50 52 53 54 55 56 57 59 59 59 60 60 60 62 64 65 66 67 68
48 48 50 51 52 52 53 54 56 57 57 58 58 58 59 60 60 59 58 56 55 54 52 50 48 47 47 47 48 49 50 50 50 50 51 51 52 53 53 52 51 50 49 50 52 53 54 55 56 57 59 60 62 62 62 62 62 63 65 67 68 69 70
49 50 51 52 53 54 54 56 57 58 59 60 60 59 59 59 58 56 55 54 53 51 49 47 47 46 47 48 49 49 50 50 50 50 51 52 53 53 53 52 50 49 50 52 53 54 56 57 58 59 61 62 63 64 64 65 66 67 67 69 70 72 72
50 51 53 54 54 55 56 58 59 59 60 60 59 58 58 57 56 54 53 52 50 48 47 46 46 47 47 48 49 49 49 49 50 50 52 53 53 53 52 49 48 49 51 53 54 56 57 59 60 61 62 63 64 65 66 67 68 69 70 71 71 73 74
51 52 53 54 55 57 58 59 59 59 59 59 58 56 56 54 53 52 50 49 48 46 46 46 46 47 47 48 48 49 49 49 50 51 53 53 53 52 49 48 48 50 52 54 56 57 59 60 61 62 63 64 65 66 68 68 68 69 71 72 73 73 75
55 55 54 55 56 57 58 57 57 58 58 57 55 54 53 52 51 49 48 47 46 46 46 46 46 47 47 47 48 48 48 49 51 52 53 53 51 49 48 48 49 51 53 55 57 58 60 61 62 63 64 66 67 67 68 69 70 70 70 71 73 75 76
56 56 55 56 56 56 56 56 56 56 55 55 53 52 51 49 48 47 46 45 45 45 45 45 46 47 47 47 47 47 48 50 52 53 53 52 50 48 48 49 50 52 54 56 58 59 60 62 63 64 66 66 67 68 69 70 71 72 71 72 74 75 77
53 54 55 55 55 55 55 54 53 53 53 52 51 50 48 47 46 45 45 44 44 45 45 46 46 46 46 46 47 48 50 51 52 53 52 51 50 49 48 50 51 53 55 57 58 60 62 63 64 66 67 67 68 69 70 71 72 73 74 75 76 77 79
53 54 53 53 54 54 53 52 51 50 50 50 49 47 46 45 44 44 44 44 44 45 45 46 46 46 46 46 48 49 51 52 52 52 52 51 50 49 50 51 53 54 56 58 60 62 63 65 66 67 68 68 69 70 71 71 72 74 75 77 78 79 81
54 52 52 52 51 50 50 49 48 48 48 47 46 45 44 44 43 43 43 44 44 45 45 46 46 46 46 47 49 51 51 52 52 52 52 51 50 51 51 53 54 56 59 60 62 63 65 65 66 68 69 69 70 71 71 72 73 74 76 78 79 80 82
50 49 49 49 48 47 47 47 46 46 46 46 45 44 43 43 43 43 43 44 45 45 45 45 46 46 47 49 50 51 51 52 52 52 51 51 51 51 53 55 57 59 61 62 63 64 65 66 67 69 70 71 71 71 72 72 73 74 75 78 80 81 83
47 46 46 46 45 45 45 45 45 45 44 44 44 43 43 42 42 43 43 44 44 44 44 45 46 46 48 49 50 51 52 52 52 51 50 51 51 53 54 56 58 60 62 62 63 64 66 67 68 70 71 71 71 72 72 73 74 75 76 78 80 82 83
44 44 44 44 44 44 44 45 45 44 43 43 43 42 42 42 42 43 44 44 44 44 44 45 46 47 49 50 50 52 53 52 50 50 51 51 53 54 56 57 59 60 61 62 64 65 66 68 69 71 71 71 72 72 73 74 74 75 77 79 80 82 83
43 43 43 44 44 44 44 44 44 43 43 43 43 42 42 42 42 43 44 44 44 44 44 45 46 47 49 51 51 51 51 50 49 50 51 52 53 55 56 58 59 60 61 62 64 65 67 69 70 71 71 72 72 72 73 74 75 76 77 79 81 83 84
43 43 43 44 44 44 44 45 44 44 43 44 43 42 42 42 42 43 44 44 44 45 45 45 46 47 49 52 52 51 49 48 49 50 51 52 54 55 56 58 59 61 62 63 64 66 68 70 71 71 72 72 72 72 73 74 75 77 78 80 82 84 85
44 44 44 45 45 45 45 45 45 44 44 44 43 43 42 42 43 44 44 45 45 46 46 46 46 47 50 51 51 49 49 49 50 52 52 53 54 55 56 58 60 61 62 64 65 67 69 71 71 72 72 72 72 72 73 74 76 77 79 80 82 84 86
45 45 45 45 45 45 45 46 45 45 45 45 44 44 43 43 44 45 45 45 46 46 46 46 46 48 50 50 49 48 49 50 52 53 53 53 54 55 56 58 60 61 63 64 66 68 70 71 71 72 72 71 72 72 73 75 76 77 79 81 82 84 86
45 45 45 45 45 46 46 46 46 46 46 45 44 45 44 44 45 46 46 46 47 47 47 46 46 47 48 48 47 48 49 51 52 52 52 53 54 55 56 58 60 61 63 65 67 69 70 71 71 71 71 71 72 73 73 75 76 78 79 81 82 84 85
45 45 45 45 45 45 46 46 46 46 46 45 45 45 45 45 46 47 47 47 48 48 48 47 46 46 46 46 47 48 50 51 52 52 52 52 53 55 56 58 60 62 63 65 67 69 70 71 71 71 71 71 72 73 74 75 77 78 80 82 83 85 84
44 44 44 44 45 45 45 46 47 47 46 45 46 46 46 46 47 48 48 48 48 49 48 48 47 47 48 48 49 50 51 52 51 51 51 52 53 55 57 59 61 62 64 66 68 70 71 71 71 71 71 72 73 74 75 76 77 78 80 82 84 84 82
44 44 44 44 44 44 45 46 47 47 46 45 46 47 47 47 48 48 49 49 49 50 49 47 48 49 50 50 51 52 52 52 51 51 51 52 54 55 57 60 61 63 64 67 69 70 71 72 71 71 71 72 73 74 75 76 78 79 80 82 83 83 81
45 44 44 44 44 45 46 47 47 46 46 45 46 47 47 48 48 49 49 49 50 50 49 48 49 51 51 51 51 52 52 51 51 51 51 53 55 56 58 60 62 64 66 68 70 71 72 72 71 71 72 72 73 75 76 77 78 79 80 82 82 81 79
46 46 46 46 45 45 47 47 47 46 46 46 46 47 47 48 49 49 49 49 50 51 50 49 51 52 52 51 52 52 52 52 51 52 52 53 55 57 59 61 64 65 67 69 71 72 72 72 72 72 72 72 73 75 75 76 78 79 80 82 80 78 77
47 46 47 47 47 46 47 47 47 46 46 46 47 47 48 49 49 49 49 49 51 51 50 50 52 53 53 52 51 51 51 52 53 53 53 55 56 58 60 63 65 67 69 70 72 72 72 72 72 72 72 73 74 74 75 76 77 79 80 80 78 76 75
47 46 48 49 48 48 48 48 47 47 47 47 48 48 49 49 49 49 49 49 50 51 51 51 53 54 55 53 52 51 52 53 55 56 56 57 59 61 62 64 66 68 70 71 72 73 72 72 72 72 73 73 74 74 75 76 78 79 80 78 76 75 73
47 46 47 48 49 49 49 48 48 48 47 47 48 49 49 50 50 49 49 49 49 50 51 52 53 54 56 54 53 53 53 54 56 58 59 61 62 63 64 66 67 69 71 72 73 73 72 72 72 73 73 73 74 74 75 76 78 79 79 77 75 73 70
46 45 46 48 49 51 50 49 49 48 48 48 49 49 50 50 50 50 49 49 49 50 51 52 52 53 55 55 55 55 55 55 57 59 61 62 63 64 65 66 68 70 72 73 73 73 73 72 72 73 73 73 74 74 75 76 78 79 77 75 73 71 67
47 47 49 50 51 52 51 50 49 49 48 49 49 50 50 50 50 50 49 47 48 49 50 52 53 53 53 54 55 55 55 57 58 60 62 63 64 65 66 67 69 71 72 73 74 74 73 72 72 73 73 73 74 74 75 76 78 78 75 73 71 68 65
49 50 51 51 51 51 50 50 49 49 49 50 50 50 50 50 51 50 49 47 48 50 52 52 53 54 53 54 54 54 55 58 59 61 62 64 65 66 67 68 69 71 73 74 74 74 73 72 72 73 73 73 74 74 75 77 78 76 74 72 69 66 63
52 52 52 51 51 51 50 50 49 49 50 50 50 50 50 51 51 51 50 49 49 51 52 52 52 53 54 54 54 55 56 58 60 62 63 64 65 66 67 68 70 71 73 74 74 73 73 72 73 73 73 73 74 74 75 77 77 75 72 71 67 63 62
Wind_Direction
276 276 277 279 280 282 283 284 285 286 287 289 290 291 293 294 296 297 298 299 300 301 302 303 304 304 306 311 313 312 310 308 305 303 302 302 302 303 304 305 306 306 307 307 308 308 309 310 310 309 308 308 309 310 311 311 312 313 314 314 315 315 314
274 275 277 279 280 282 283 284 285 287 288 289 290 292 293 294 295 296 298 299 300 300 302 304 304 305 307 310 311 310 308 306 304 302 301 301 301 303 304 306 306 306 306 307 308 309 310 311 311 310 309 309 310 311 312 312 313 313 314 315 315 315 315
274 276 278 279 281 282 284 285 286 287 288 290 291 292 293 294 295 297 298 299 300 301 302 304 304 306 308 309 309 308 306 304 303 301 300 300 302 304 305 306 306 306 307 307 308 309 310 310 311 311 311 312 312 313 313 313 314 315 316 316 316 316 316
275 278 279 280 282 283 285 285 286 287 288 290 291 292 293 294 296 297 298 299 300 301 302 303 304 305 307 307 307 306 304 303 302 300 300 301 303 304 305 306 306 306 307 308 309 310 310 310 310 310 311 312 313 314 315 316 316 317 317 317 317 317 317
276 278 280 281 283 284 285 285 286 286 288 289 290 292 293 294 296 297 298 299 300 301 301 302 303 304 305 306 306 305 303 302 301 300 301 302 304 304 305 306 307 307 308 309 311 310 310 310 310 309 310 311 312 314 316 317 317 317 317 318 318 318 318
277 279 281 282 283 283 284 284 285 286 287 289 291 292 293 294 296 297 298 299 300 300 301 301 302 303 305 305 304 303 302 300 300 300 302 303 304 304 305 306 307 308 310 311 312 311 311 311 310 310 311 312 314 315 317 317 316 316 317 318 318 318 318
278 280 281 281 281 282 282 283 284 286 287 289 291 292 294 295 296 297 298 298 299 299 299 300 301 303 304 303 302 301 300 299 299 301 302 303 303 304 306 307 308 309 312 314 313 313 312 312 313 314 315 315 316 317 317 317 316 316 317 318 318 317 318
278 279 280 280 280 280 281 283 284 286 288 290 291 292 294 294 296 297 297 297 297 297 298 299 301 302 302 301 300 299 299 299 300 301 302 302 303 304 306 307 308 311 314 315 314 314 314 315 315 316 317 318 318 319 318 317 317 318 318 318 318 318 319
277 278 278 278 279 280 282 283 285 287 289 290 291 293 293 294 295 295 296 296 296 296 298 300 301 301 301 299 298 298 298 299 300 301 302 302 303 304 306 307 310 313 314 315 315 316 316 317 317 318 319 320 320 319 319 319 319 319 319 319 319 320 320
275 276 277 278 279 281 282 284 286 287 289 290 291 292 293 293 294 294 294 294 295 296 298 300 300 300 299 298 298 298 298 299 300 301 301 302 303 305 307 309 312 314 315 315 316 317 318 319 319 320 320 320 320 320 320 321 321 321 320 320 321 321 321
275 277 278 278 279 281 283 285 286 287 289 290 291 292 292 292 293 293 294 294 295 297 298 299 299 298 297 297 297 297 298 300 300 300 301 302 304 306 310 312 313 314 315 316 318 319 320 320 320 320 320 320 321 322 322 322 322 321 321 321 322 322 321
275 278 277 278 280 283 284 285 286 287 288 289 290 291 291 292 292 293 293 294 296 297 297 298 297 297 296 297 297 297 299 299 299 300 301 303 306 310 312 314 314 315 317 318 320 320 320 320 320 320 321 322 322 322 322 321 321 321 321 322 322 322 321
277 278 278 280 282 284 284 285 286 287 288 289 290 291 291 291 292 292 293 295 296 297 297 297 296 296 296 297 297 298 298 298 299 300 301 305 310 312 313 313 315 317 319 320 320 320 320 320 321 321 322 322 322 322 321 320 321 321 322 322 322 322 322
278 278 279 281 283 284 285 286 286 287 288 289 290 290 291 292 292 293 294 295 296 296 296 296 296 295 296 297 297 297 297 298 299 300 303 308 312 312 313 315 317 319 320 320 320 320 320 321 321 321 322 322 322 321 321 321 321 322 322 322 322 322 322
279 279 280 281 282 284 285 285 286 287 288 288 289 290 291 292 293 294 295 296 296 296 296 296 295 296 297 297 296 296 297 298 298 302 307 311 311 312 314 316 318 319 320 320 320 321 321 321 321 321 321 321 320 320 321 322 322 322 322 323 322 322 323
281 281 280 281 282 284 284 285 286 287 287 288 289 291 292 293 293 294 296 296 296 296 295 296 296 296 296 296 295 296 297 298 301 305 309 310 311 313 315 317 318 319 320 321 321 321 321 320 320 320 320 320 320 321 322 322 322 323 323 323 323 323 323
281 280 280 281 282 283 284 285 285 286 287 288 290 292 292 293 294 295 296 296 295 295 296 296 296 296 295 295 295 296 298 300 304 307 309 310 312 315 316 317 319 320 321 322 321 320 319 319 319 319 319 319 320 321 322 322 323 323 323 323 323 323 324
279 279 280 281 282 283 284 284 285 286 288 289 290 292 292 293 294 295 295 295 295 296 297 296 295 295 294 294 295 297 300 303 306 308 309 311 313 314 316 319 321 321 321 320 319 318 318 318 319 319 319 320 321 322 322 322 323 323 323 323 323 323 324
278 279 280 281 282 283 283 284 285 287 288 289 290 291 291 292 293 294 294 294 295 296 296 294 295 294 293 294 296 298 301 304 306 308 309 312 313 315 318 320 319 319 318 317 317 317 317 318 318 318 319 320 321 321 322 322 323 323 323 323 323 323 323
279 279 280 282 283 283 284 285 286 287 288 289 290 290 291 291 292 293 293 294 295 295 294 294 294 294 293 294 296 300 302 305 307 309 311 313 314 316 317 317 316 316 316 316 316 316 317 317 318 319 320 320 321 321 322 322 322 322 322 322 322 323 323
280 281 282 282 283 284 285 286 286 287 288 288 289 289 290 291 291 292 293 294 294 293 293 293 294 294 294 294 298 302 304 306 308 309 311 313 313 314 315 314 315 315 316 316 316 316 316 317 318 319 320 320 321 321 322 322 322 322 322 323 323 323 324
281 282 282 283 284 284 285 286 287 288 288 288 288 288 289 290 290 291 292 293 292 292 293 294 294 294 293 296 301 305 306 307 308 309 310 311 311 311 313 313 314 315 316 315 315 315 316 318 319 319 319 320 321 321 322 322 322 322 322 323 323 324 324
281 282 283 283 284 284 285 286 286 287 287 287 288 288 288 288 289 290 291 291 291 292 293 294 295 294 294 298 304 306 306 307 308 308 308 308 309 310 312 313 314 315 315 315 315 316 317 318 319 319 319 320 321 321 321 321 321 322 323 323 324 324 325
282 283 283 283 284 284 285 285 285 286 286 287 288 287 287 287 288 288 289 290 291 292 293 295 295 294 297 302 305 305 305 305 305 305 306 307 308 310 311 313 314 314 315 315 316 317 318 318 318 318 319 320 320 321 321 321 322 323 323 323 324 324 325
283 283 283 283 283 283 284 284 284 284 285 286 287 286 286 286 286 287 288 289 290 291 293 295 295 295 298 301 302 301 300 300 301 303 305 307 308 310 311 312 313 314 315 316 317 317 317 317 318 318 319 320 320 320 321 321 322 323 323 324 324 325 325
283 283 283 283 283 283 283 283 283 283 284 285 286 285 285 285 285 286 287 288 290 291 293 294 294 295 297 298 297 297 298 299 301 304 306 307 308 310 311 312 313 315 316 317 317 317 317 317 318 319 319 319 319 320 321 322 322 323 324 324 325 326 326
283 283 283 283 283 283 282 282 282 282 283 284 284 284 284 284 284 285 286 288 289 291 292 294 294 295 296 296 296 297 299 301 303 305 306 307 308 309 310 312 314 316 317 317 317 317 317 318 318 319 319 319 319 320 321 322 323 324 324 324 325 326 327
283 283 284 284 284 283 283 282 281 282 282 283 283 283 283 283 283 284 286 287 289 290 292 294 294 294 295 296 297 299 300 303 304 305 306 307 308 309 310 313 315 316 317 317 317 317 318 318 318 318 318 318 319 320 322 323 324 324 324 325 326 327 327
284 284 284 285 285 285 284 282 282 282 282 282 281 282 282 282 282 283 284 286 288 289 291 293 293 292 294 296 298 300 302 304 304 305 306 307 308 309 311 313 315 317 317 317 317 318 318 318 318 318 318 319 320 321 322 323 324 324 325 326 327 327 327
283 284 285 285 286 286 285 284 283 283 282 281 281 281 281 281 281 282 283 285 287 289 291 293 292 292 295 297 299 301 303 304 304 305 307 307 308 310 312 314 316 316 317 317 318 318 318 318 317 317 318 319 320 321 323 323 324 324 325 327 327 327 326
284 285 286 286 286 286 286 285 284 283 282 281 280 280 279 280 280 281 282 284 287 289 291 292 292 293 294 296 299 302 303 304 304 306 307 308 310 312 314 315 315 316 316 317 318 318 318 317 317 317 318 319 320 321 323 323 324 324 326 327 327 326 326
286 286 286 286 287 287 286 285 284 283 282 281 280 279 279 279 279 281 282 284 287 289 291 291 292 293 294 297 300 302 303 305 306 308 310 312 313 313 314 314 315 315 316 317 318 317 317 316 316 317 318 319 321 322 323 323 324 325 327 327 327 326 326
288 289 288 286 286 286 286 286 285 283 281 281 280 280 279 280 280 281 282 284 286 288 289 290 292 294 296 299 302 303 304 307 309 311 312 313 312 312 312 313 314 315 315 316 317 317 316 316 316 317 318 320 321 322 323 324 324 326 327 327 327 327 326
287 285 282 282 283 285 286 286 285 284 282 281 281 280 281 281 281 281 282 284 285 285 286 289 292 294 297 300 302 303 306 309 310 311 311 310 310 310 311 312 313 314 315 316 316 316 315 315 316 317 319 320 321 322 323 324 325 326 327 327 327 326 325
282 279 278 280 282 284 285 285 285 284 283 282 281 281 281 281 281 280 281 282 283 284 287 290 291 293 296 299 301 304 307 309 309 309 309 308 308 309 310 311 312 313 315 315 315 315 315 316 317 318 319 320 321 322 323 324 325 326 327 327 327 326 325
280 280 281 283 284 284 284 284 284 283 282 282 281 281 281 281 280 280 280 280 282 284 287 289 291 293 295 298 301 304 306 306 307 307 307 307 307 308 309 311 312 313 314 314 314 315 315 316 317 318 319 320 321 322 324 324 325 326 326 327 326 326 325
280 281 282 283 284 284 284 283 283 282 281 281 281 281 281 280 280 280 280 280 281 283 285 287 289 291 293 296 299 301 303 304 305 306 306 306 306 307 308 310 312 313 313 313 314 315 315 316 317 318 319 320 321 323 324 325 325 325 326 326 326 325 325
Height
10775 10775 10775 10775 10774 10773 10773 10772 10771 10770 10770 10770 10769 10767 10766 10763 10760 10757 10754 10752 10750 10747 10745 10742 10739 10737 10734 10731 10728 10725 10722 10720 10717 10715 10712 10710 10708 10705 10703 10700 10697 10694 10691 10688 10684 10680 10675 10670 10667 10666 10663 10659 10654 10650 10645 10639 10635 10632 10627 10622 10617 10611 10607
10771 10771 10771 10771 10769 10769 10769 10767 10765 10764 10764 10764 10763 10761 10760 10758 10756 10753 10750 10747 10745 10743 10740 10738 10735 10732 10729 10726 10724 10721 10718 10715 10713 10711 10708 10706 10704 10701 10699 10697 10694 10691 10688 10685 10681 10678 10673 10667 10662 10658 10656 10653 10649 10646 10641 10634 10629 10626 10622 10616 10611 10606 10601
10766 10767 10767 10766 10765 10764 10764 10762 10760 10758 10757 10757 10757 10755 10754 10752 10750 10747 10745 10742 10740 10738 10735 10733 10730 10727 10724 10721 10719 10716 10713 10711 10708 10706 10704 10701 10699 10697 10695 10692 10690 10687 10684 10681 10678 10675 10671 10666 10659 10653 10649 10646 10642 10639 10635 10628 10622 10619 10615 10609 10605 10600 10595
10762 10763 10763 10761 10760 10759 10758 10756 10754 10753 10752 10752 10751 10749 10748 10746 10743 10741 10739 10736 10734 10732 10730 10727 10724 10722 10719 10716 10714 10711 10709 10706 10704 10701 10699 10697 10695 10692 10690 10687 10684 10682 10679 10676 10673 10670 10667 10663 10658 10652 10647 10643 10637 10632 10628 10621 10615 10611 10607 10602 10597 10592 10587
10758 10759 10758 10757 10756 10754 10753 10751 10748 10747 10747 10747 10746 10743 10742 10741 10737 10735 10734 10731 10728 10726 10724 10721 10719 10716 10713 10711 10709 10706 10704 10702 10699 10697 10694 10692 10690 10687 10685 10682 10679 10676 10673 10671 10668 10664 10661 10657 10654 10649 10645 10640 10636 10630 10624 10617 10610 10605 10601 10596 10590 10585 10580
10754 10754 10753 10752 10751 10749 10748 10745 10743 10742 10742 10742 10741 10738 10736 10735 10732 10730 10728 10726 10723 10720 10718 10716 10713 10711 10708 10706 10704 10701 10699 10697 10694 10692 10690 10688 10685 10682 10680 10677 10674 10671 10668 10665 10661 10658 10654 10651 10647 10643 10639 10635 10631 10627 10621 10615 10608 10601 10596 10592 10587 10581 10575
10749 10749 10748 10747 10745 10744 10742 10740 10738 10737 10736 10737 10737 10734 10730 10729 10727 10725 10723 10720 10718 10715 10713 10711 10708 10706 10704 10701 10699 10697 10694 10692 10690 10688 10685 10683 10680 10678 10675 10672 10669 10666 10662 10659 10655 10651 10648 10644 10640 10635 10631 10627 10624 10620 10615 10610 10604 10597 10591 10587 10583 10577 10571
10744 10744 10743 10741 10740 10739 10737 10735 10733 10732 10731 10731 10731 10730 10726 10722 10721 10719 10717 10715 10713 10710 10708 10705 10703 10701 10699 10696 10694 10692 10690 10687 10685 10683 10681 10678 10675 10672 10670 10667 10663 10660 10657 10653 10649 10645 10641 10637 10633 10628 10624 10619 10615 10612 10608 10603 10599 10592 10586 10581 10576 10571 10565
10739 10738 10737 10736 10734 10733 10732 10730 10728 10727 10727 10725 10725 10724 10721 10717 10716 10714 10712 10710 10707 10705 10703 10700 10698 10696 10694 10692 10689 10687 10685 10683 10681 10678 10676 10673 10670 10667 10664 10661 10658 10655 10652 10648 10643 10639 10635 10631 10627 10622 10617 10612 10607 10603 10599 10595 10590 10585 10579 10573 10567 10562 10557
10733 10733 10732 10730 10728 10728 10727 10725 10723 10722 10721 10719 10719 10718 10715 10712 10710 10709 10707 10704 10702 10700 10698 10695 10693 10691 10689 10687 10685 10683 10680 10678 10676 10673 10670 10667 10665 10662 10659 10656 10653 10650 10646 10642 10638 10633 10629 10625 10620 10616 10611 10606 10601 10596 10591 10586 10581 10576 10571 10566 10560 10553 10548
10728 10727 10726 10724 10723 10723 10721 10719 10718 10717 10715 10713 10713 10712 10709 10707 10705 10704 10702 10699 10697 10695 10693 10691 10689 10687 10685 10683 10681 10678 10676 10674 10671 10668 10665 10662 10659 10657 10654 10651 10648 10644 10640 10636 10632 10627 10623 10619 10615 10610 10606 10601 10595 10589 10584 10579 10574 10568 10562 10558 10553 10546 10539
10722 10722 10721 10719 10718 10717 10715 10714 10713 10712 10709 10708 10707 10706 10704 10702 10700 10698 10696 10694 10692 10690 10688 10686 10684 10682 10680 10678 10676 10674 10671 10669 10665 10662 10659 10657 10654 10652 10650 10646 10642 10638 10634 10630 10626 10622 10617 10613 10609 10604 10600 10594 10589 10583 10577 10572 10568 10564 10557 10550 10545 10539 10532
10716 10716 10715 10714 10712 10711 10709 10708 10707 10705 10703 10702 10701 10700 10698 10697 10695 10693 10691 10689 10687 10685 10683 10681 10679 10677 10676 10674 10671 10669 10666 10663 10660 10657 10654 10652 10650 10647 10644 10640 10636 10632 10628 10624 10620 10616 10612 10608 10603 10598 10593 10588 10583 10577 10572 10566 10561 10557 10553 10546 10539 10532 10525
10710 10710 10710 10708 10706 10704 10703 10702 10701 10699 10697 10696 10695 10694 10693 10691 10689 10687 10686 10684 10682 10680 10678 10676 10674 10672 10671 10669 10666 10664 10661 10658 10654 10651 10649 10647 10645 10642 10638 10634 10630 10626 10622 10618 10615 10611 10606 10602 10597 10593 10587 10582 10577 10571 10566 10560 10554 10548 10545 10540 10533 10526 10520
10704 10704 10704 10702 10700 10698 10697 10697 10696 10694 10691 10690 10689 10688 10687 10686 10684 10682 10680 10678 10677 10675 10673 10671 10669 10667 10666 10664 10661 10658 10656 10652 10649 10646 10644 10642 10639 10636 10632 10629 10625 10621 10617 10613 10609 10605 10600 10596 10591 10586 10581 10576 10571 10565 10560 10554 10547 10540 10534 10530 10525 10518 10511
10698 10697 10697 10696 10694 10692 10691 10691 10690 10688 10686 10684 10684 10683 10682 10680 10679 10677 10675 10673 10671 10669 10668 10666 10664 10663 10661 10659 10656 10653 10650 10647 10644 10642 10639 10636 10633 10630 10626 10623 10619 10615 10611 10607 10603 10599 10594 10590 10585 10580 10575 10570 10565 10559 10554 10548 10541 10534 10527 10520 10515 10509 10502
10692 10691 10690 10689 10688 10687 10685 10685 10684 10682 10681 10679 10679 10678 10677 10675 10673 10672 10670 10668 10666 10664 10663 10661 10659 10658 10656 10653 10651 10648 10645 10642 10640 10637 10634 10631 10627 10624 10621 10617 10613 10609 10605 10601 10597 10593 10589 10584 10579 10574 10568 10563 10558 10553 10548 10542 10536 10529 10522 10514 10507 10501 10496
10685 10685 10684 10682 10682 10681 10679 10678 10678 10677 10676 10674 10674 10673 10672 10670 10668 10666 10664 10662 10660 10659 10658 10656 10654 10653 10650 10648 10645 10643 10640 10637 10635 10632 10628 10625 10622 10618 10615 10611 10607 10603 10599 10596 10592 10588 10583 10578 10573 10568 10562 10557 10552 10547 10541 10536 10530 10524 10517 10509 10501 10495 10490
10679 10679 10678 10676 10676 10675 10674 10673 10672 10672 10671 10670 10669 10668 10667 10665 10663 10661 10659 10657 10656 10655 10653 10651 10649 10647 10644 10642 10640 10637 10635 10632 10629 10626 10623 10619 10616 10612 10609 10605 10601 10598 10595 10591 10587 10582 10577 10572 10567 10562 10557 10552 10546 10541 10535 10529 10524 10518 10512 10505 10497 10490 10484
10673 10673 10672 10671 10670 10669 10669 10667 10667 10667 10666 10665 10664 10663 10661 10660 10658 10655 10653 10652 10651 10650 10648 10646 10644 10642 10638 10636 10635 10632 10629 10627 10623 10620 10617 10614 10610 10606 10603 10600 10597 10594 10590 10586 10581 10576 10571 10566 10561 10556 10551 10546 10540 10535 10529 10523 10518 10512 10506 10499 10491 10485 10479
10667 10667 10666 10665 10665 10664 10663 10662 10662 10662 10661 10660 10659 10658 10656 10654 10652 10650 10648 10648 10646 10645 10643 10642 10639 10636 10633 10630 10629 10627 10624 10621 10618 10614 10611 10608 10605 10602 10599 10596 10593 10589 10585 10580 10576 10571 10566 10560 10556 10551 10545 10540 10535 10529 10523 10517 10511 10505 10500 10493 10485 10478 10472
10661 10661 10661 10661 10660 10659 10658 10657 10656 10656 10655 10654 10653 10652 10651 10649 10647 10645 10644 10643 10641 10640 10639 10637 10634 10631 10627 10624 10622 10621 10618 10615 10612 10609 10606 10603 10600 10598 10595 10592 10588 10584 10579 10575 10570 10565 10560 10555 10550 10545 10540 10535 10529 10524 10517 10511 10505 10499 10493 10487 10479 10471 10464
10655 10656 10656 10655 10654 10654 10653 10651 10651 10650 10649 10648 10648 10647 10646 10644 10643 10641 10640 10638 10636 10635 10634 10632 10629 10625 10622 10619 10617 10614 10612 10609 10607 10604 10601 10598 10595 10593 10590 10586 10582 10578 10574 10569 10564 10559 10554 10549 10544 10540 10535 10529 10524 10518 10512 10505 10499 10493 10486 10480 10473 10465 10458
10650 10650 10650 10649 10649 10648 10647 10645 10645 10644 10643 10643 10643 10642 10640 10640 10638 10636 10635 10633 10631 10630 10629 10627 10624 10619 10616 10615 10612 10609 10607 10604 10602 10599 10596 10594 10590 10588 10585 10581 10577 10573 10568 10563 10558 10554 10549 10544 10539 10534 10529 10523 10518 10512 10506 10500 10494 10487 10480 10474 10467 10460 10453
10645 10645 10644 10644 10643 10642 10641 10640 10639 10638 10638 10638 10638 10636 10635 10634 10633 10631 10630 10629 10627 10625 10624 10622 10619 10615 10612 10610 10608 10605 10603 10600 10597 10594 10592 10589 10586 10582 10579 10576 10572 10568 10563 10558 10553 10548 10543 10538 10533 10528 10523 10518 10512 10507 10501 10494 10488 10481 10474 10467 10461 10454 10446
10640 10639 10638 10638 10637 10636 10635 10634 10633 10633 10633 10634 10633 10631 10630 10629 10628 10626 10625 10624 10622 10620 10618 10617 10614 10611 10609 10606 10603 10600 10598 10595 10593 10590 10587 10584 10581 10577 10574 10570 10566 10562 10558 10553 10547 10542 10538 10532 10527 10522 10517 10511 10506 10500 10495 10489 10482 10475 10468 10460 10453 10446 10439
10634 10634 10634 10633 10632 10631 10630 10628 10627 10627 10628 10628 10627 10625 10625 10624 10622 10621 10619 10618 10617 10614 10613 10612 10608 10605 10604 10601 10598 10595 10593 10591 10588 10586 10583 10579 10575 10572 10568 10564 10561 10557 10552 10547 10542 10537 10532 10527 10522 10516 10511 10505 10500 10494 10489 10483 10476 10469 10462 10455 10447 10439 10432
10629 10629 10629 10627 10626 10626 10624 10622 10622 10622 10623 10623 10621 10619 10619 10618 10617 10615 10614 10613 10611 10608 10607 10607 10603 10599 10598 10596 10593 10591 10588 10586 10584 10580 10577 10574 10570 10566 10562 10558 10555 10551 10547 10542 10536 10531 10526 10521 10515 10510 10505 10499 10494 10488 10482 10476 10469 10463 10456 10449 10441 10433 10426
10624 10624 10623 10622 10621 10620 10619 10617 10616 10617 10617 10617 10615 10614 10613 10612 10611 10610 10609 10607 10605 10602 10602 10602 10598 10594 10592 10590 10588 10585 10583 10581 10578 10575 10572 10568 10564 10561 10557 10553 10549 10545 10541 10536 10531 10525 10520 10515 10509 10504 10499 10494 10488 10482 10476 10470 10463 10457 10450 10443 10435 10427 10420
10618 10618 10617 10617 10616 10615 10613 10612 10611 10611 10611 10611 10609 10608 10607 10606 10605 10605 10603 10602 10599 10596 10595 10595 10591 10587 10586 10585 10583 10580 10577 10575 10572 10570 10567 10563 10559 10556 10552 10548 10543 10540 10535 10530 10525 10520 10514 10508 10503 10498 10493 10488 10483 10477 10471 10465 10458 10451 10445 10438 10430 10423 10416
10613 10613 10613 10612 10611 10610 10608 10607 10606 10606 10605 10604 10603 10602 10601 10600 10599 10599 10598 10596 10593 10590 10589 10588 10584 10581 10580 10580 10578 10576 10572 10568 10566 10564 10561 10557 10553 10550 10546 10542 10538 10534 10529 10524 10519 10514 10508 10503 10497 10492 10488 10483 10477 10472 10466 10460 10454 10447 10440 10433 10426 10418 10411
10609 10610 10609 10607 10605 10604 10603 10602 10601 10600 10599 10598 10597 10596 10595 10594 10594 10593 10593 10591 10588 10584 10582 10581 10577 10574 10574 10573 10572 10570 10567 10563 10559 10555 10553 10549 10546 10543 10540 10536 10532 10527 10523 10518 10514 10508 10503 10497 10492 10487 10482 10477 10472 10466 10460 10454 10447 10441 10435 10428 10421 10413 10406
10605 10606 10604 10601 10600 10598 10597 10596 10595 10594 10593 10592 10590 10589 10589 10588 10588 10587 10587 10585 10583 10579 10576 10574 10571 10568 10567 10566 10565 10563 10560 10557 10552 10548 10544 10541 10539 10537 10535 10531 10526 10521 10517 10512 10508 10503 10497 10492 10486 10481 10476 10471 10466 10461 10455 10448 10441 10435 10429 10422 10415 10407 10400
10603 10603 10599 10596 10594 10593 10591 10591 10589 10588 10587 10586 10584 10583 10582 10582 10582 10581 10580 10579 10576 10572 10570 10568 10566 10564 10561 10560 10558 10556 10554 10551 10547 10542 10539 10535 10533 10531 10529 10525 10520 10515 10511 10507 10501 10496 10492 10486 10481 10476 10470 10465 10460 10455 10449 10443 10436 10430 10424 10417 10410 10403 10396
10597 10595 10592 10591 10589 10587 10586 10585 10583 10582 10581 10579 10578 10577 10577 10576 10575 10575 10574 10573 10569 10566 10565 10563 10560 10559 10557 10555 10552 10550 10548 10544 10541 10538 10534 10531 10528 10525 10522 10520 10515 10509 10505 10501 10495 10490 10486 10481 10475 10470 10465 10459 10454 10449 10443 10437 10431 10424 10419 10412 10406 10399 10392
10588 10586 10585 10585 10583 10581 10580 10579 10578 10576 10574 10573 10572 10572 10571 10570 10569 10568 10568 10567 10564 10561 10560 10557 10554 10552 10552 10550 10547 10545 10542 10539 10536 10533 10530 10526 10522 10519 10516 10514 10510 10504 10499 10494 10489 10484 10480 10475 10469 10464 10459 10454 10449 10444 10438 10432 10425 10419 10413 10407 10401 10395 10389
10580 10579 10578 10577 10576 10575 10574 10573 10572 10570 10568 10567 10566 10565 10565 10563 10562 10562 10561 10560 10558 10555 10554 10552 10549 10547 10546 10545 10543 10540 10537 10534 10531 10528 10524 10521 10517 10513 10510 10508 10504 10499 10494 10488 10483 10478 10474 10469 10464 10458 10454 10449 10444 10438 10432 10426 10420 10414 10408 10402 10396 10391 10385